Hourly Data Report for October 01, 2017

All times are specified in Local Standard Time (LST). Add 1 hour to adjust for Daylight Saving Time where and when it is observed.

THOMPSON A
MANITOBA

55°48'17.000" N
97°51'45.000" W
224.00 m
5062921
71079
YTH

Download Data

Hourly Data (October 2017)
Hourly Data Report for October 1, 2017
Temp Definition
°C
Dew Point Temp Definition
°C
Rel Hum Definition
%
Wind Dir Definition
10's deg

Wind Spd Definition
km/h
Visibility Definition
km
Stn Press Definition
kPa
Hmdx Definition


Wind Chill Definition


Weather Definition


TIME
00:00 Legend Double Dagger 12.1 7.3 72 10 5 24.1 98.13     Mainly Clear
01:00 Legend Double Dagger 12.0 7.3 73 11 5 24.1 98.09     LegendNANA
02:00 Legend Double Dagger 12.2 7.7 74 11 6 24.1 98.09     LegendNANA
03:00 Legend Double Dagger 12.1 8.0 76 9 7 24.1 98.09     Mostly Cloudy
04:00 Legend Double Dagger 12.6 8.2 74 9 9 24.1 98.07     LegendNANA
05:00 Legend Double Dagger 11.6 9.0 84 7 10 24.1 98.08     LegendNANA
06:00 Legend Double Dagger 11.0 8.8 86 8 12 24.1 98.07     Mostly Cloudy
07:00 Legend Double Dagger 11.0 8.7 86 7 11 24.1 98.04     LegendNANA
08:00 Legend Double Dagger 11.4 8.8 84 7 10 24.1 98.03     LegendNANA
09:00 Legend Double Dagger 12.2 9.1 81 9 11 24.1 98.03     Mostly Cloudy
10:00 Legend Double Dagger 11.8 9.2 84 7 14 24.1 98.01     LegendNANA
11:00 Legend Double Dagger 11.2 9.1 87 8 15 24.1 98.00     LegendNANA
12:00 Legend Double Dagger 10.3 9.6 95 7 13 8.1 97.97     Rain
13:00 Legend Double Dagger 10.7 10.1 96 8 11 6.4 97.92     Rain,Fog
14:00 Legend Double Dagger 11.2 10.7 97 9 10 3.2 97.89     Rain,Fog
15:00 Legend Double Dagger 11.7 11.3 97 8 10 3.2 97.88     Rain,Fog
16:00 Legend Double Dagger 12.0 11.6 97 8 8 3.2 97.90     Rain,Fog
17:00 Legend Double Dagger 12.5 12.1 97 9 8 4.8 97.91     Rain,Fog
18:00 Legend Double Dagger 12.6 12.2 97 8 7 4.8 97.92     Rain,Fog
19:00 Legend Double Dagger 12.3 11.9 98 7 8 4.8 97.92     Drizzle,Fog
20:00 Legend Double Dagger 11.9 11.6 98 5 9 6.4 97.90     Drizzle,Fog
21:00 Legend Double Dagger 11.6 11.2 97 5 10 8.1 97.87     Drizzle,Fog
22:00 Legend Double Dagger 11.5 11.1 97 6 9 8.1 97.85     Drizzle,Fog
23:00 Legend Double Dagger 11.6 11.1 97 6 9 24.1 97.80     LegendNANA

Notes on Data Quality.

Legend

  • E = Estimated
  • M = Missing
  • NA = Not Available
  • ‡ = Partner data that is not subject to review by the National Climate Archives
Date modified: